Fresno, CA

5:37 PM PST on February 25, 2017 (GMT -0800)
Fresno Yosemite International

Weather History for KFAT - January, 2012

Change the Weather History Date:

Monday, January 23, 2012

  Actual Average Record
Temperature  
Mean Temperature 53 °F 47 °F  
Max Temperature 61 °F 56 °F 72 °F (1948)
Min Temperature 44 °F 39 °F 25 °F (1962)
Degree Days  
Heating Degree Days 12    
Month to date heating degree days 372  
Since 1 July heating degree days 1334  
Cooling Degree Days 0    
Month to date cooling degree days 0  
Year to date cooling degree days 0  
Growing Degree Days 4 (Base 50)    
Moisture  
Dew Point 46 °F    
Average Humidity 79    
Maximum Humidity 86    
Minimum Humidity 72    
Precipitation  
Precipitation 0.45 in 0.07 in 0.89 in (2000)
Month to date precipitation 1.37 1.63  
Year to date precipitation 1.37 1.63  
Since 1 July precipitation 2.94  
Snow  
Snow 0.00 in - - ()
Month to date snowfall 0.0  
Since 1 July snowfall 0.0  
Snow Depth 0.00 in    
Sea Level Pressure  
Sea Level Pressure 29.96 in    
Wind  
Wind Speed 9 mph (ENE)    
Max Wind Speed 21 mph    
Max Gust Speed 25 mph    
Visibility 9 miles    
Events Rain    
T = Trace of Precipitation, MM = Missing Value Source: NWS Daily Summary

Daily Weather History Graph

Daily Weather History Graph

Search for Another Location

Airport or City:

Trip Planner

Search our weather history database for the weather conditions in past years. The results will help you decide how hot, cold, wet, or windy it might be!

Date:

Astronomy

Jan. 23, 2012 Rise Set
Actual Time 7:07 AM PST 5:14 PM PST
Civil Twilight 6:39 AM PST 5:42 PM PST
Nautical Twilight 6:08 AM PST 6:13 PM PST
Astronomical Twilight 5:37 AM PST 6:44 PM PST
Moon 7:07 AM PST (1/23) 6:04 PM PST (1/23)
Length of Visible Light 11h 02m
Length of Day
10h 06m
New Moon, 0% of the Moon is Illuminated
Jan 23
New Moon
Jan 30
First Quarter
Feb 7
Full
Feb 14
Last Quarter
Feb 21
New

Hourly Weather History & Observations

Time (PST) Temp. Windchill Dew Point Humidity Pressure Visibility Wind Dir Wind Speed Gust Speed Precip Events Conditions
12:53 AM 50.0 °F - 42.1 °F 74% 30.01 in 7.0 mi South 10.4 mph - 0.01 in Rain Light Rain
1:53 AM 48.0 °F - 44.1 °F 86% 29.98 in 7.0 mi East 13.8 mph - 0.13 in Rain Light Rain
2:53 AM 48.0 °F - 43.0 °F 83% 29.95 in 8.0 mi East 20.7 mph - 0.12 in Rain Light Rain
3:53 AM 48.9 °F - 44.1 °F 83% 29.90 in 10.0 mi ESE 10.4 mph - 0.01 in Rain Light Rain
4:53 AM 48.9 °F - 45.0 °F 86% 29.85 in 8.0 mi ESE 13.8 mph - 0.09 in Rain Rain
5:53 AM 50.0 °F - 45.0 °F 83% 29.84 in 10.0 mi ESE 6.9 mph - 0.00 in Rain Light Rain
6:53 AM 51.1 °F - 46.9 °F 86% 29.88 in 10.0 mi Calm Calm - 0.03 in Rain Light Rain
7:53 AM 51.1 °F - 46.0 °F 83% 29.88 in 10.0 mi East 8.1 mph - 0.00 in   Overcast
8:53 AM 52.0 °F - 46.9 °F 83% 29.88 in 10.0 mi East 11.5 mph - N/A   Overcast
9:53 AM 54.0 °F - 48.0 °F 80% 29.90 in 10.0 mi SE 15.0 mph - N/A   Overcast
10:53 AM 57.0 °F - 51.1 °F 81% 29.90 in 10.0 mi ESE 12.7 mph - N/A   Mostly Cloudy
11:53 AM 57.0 °F - 51.1 °F 81% 29.88 in 10.0 mi SE 12.7 mph - N/A   Overcast
12:53 PM 61.0 °F - 51.1 °F 70% 29.86 in 10.0 mi SE 10.4 mph - N/A   Scattered Clouds
1:53 PM 59.0 °F - 48.9 °F 69% 29.86 in 6.0 mi SE 3.5 mph - 0.00 in Rain Light Rain
2:53 PM 55.9 °F - 50.0 °F 80% 29.89 in 3.0 mi North 6.9 mph - 0.06 in Rain Light Rain
3:53 PM 54.0 °F - 48.0 °F 80% 29.95 in 10.0 mi NNW 12.7 mph 20.7 mph 0.00 in   Mostly Cloudy
4:53 PM 54.0 °F - 48.0 °F 80% 29.98 in 10.0 mi NNW 11.5 mph - 0.00 in   Mostly Cloudy
5:53 PM 52.0 °F - 46.9 °F 83% 29.99 in 10.0 mi West 5.8 mph - N/A   Mostly Cloudy
6:53 PM 51.1 °F - 46.0 °F 83% 30.02 in 10.0 mi WNW 11.5 mph - N/A   Overcast
7:53 PM 48.9 °F - 44.1 °F 83% 30.04 in 10.0 mi NW 9.2 mph - N/A   Mostly Cloudy
8:53 PM 46.9 °F - 43.0 °F 86% 30.06 in 10.0 mi NW 5.8 mph - N/A   Scattered Clouds
9:53 PM 46.0 °F 43.1 °F 42.1 °F 86% 30.09 in 10.0 mi West 5.8 mph - N/A   Scattered Clouds
10:42 PM 46.4 °F 45.2 °F 42.8 °F 87% 30.12 in 10.0 mi North 3.5 mph - N/A   Mostly Cloudy
10:53 PM 46.9 °F - 43.0 °F 86% 30.12 in 10.0 mi North 4.6 mph - N/A   Overcast
11:53 PM 45.0 °F 43.5 °F 42.1 °F 90% 30.15 in 7.0 mi NNW 3.5 mph - N/A   Mostly Cloudy